TimeEST,TemperatureF,Dew PointF,Humidity,Sea Level PressureIn,VisibilityMPH,Wind Direction,Wind SpeedMPH,Gust SpeedMPH,PrecipitationIn,Events,Conditions,WindDirDegrees,DateUTC
12:56 AM,30.0,19.0,64,29.89,10.0,SW,3.5,-,N/A,,Overcast,220,2013-01-05 05:56:00
1:56 AM,30.9,19.9,64,29.91,10.0,SW,5.8,-,N/A,,Overcast,220,2013-01-05 06:56:00
2:56 AM,33.1,21.0,61,29.92,10.0,WSW,6.9,-,N/A,,Overcast,250,2013-01-05 07:56:00
3:56 AM,32.0,21.0,64,29.94,10.0,SW,5.8,-,N/A,,Clear,230,2013-01-05 08:56:00
4:56 AM,32.0,21.9,66,29.96,10.0,SW,6.9,-,N/A,,Overcast,230,2013-01-05 09:56:00
5:56 AM,30.9,21.0,67,29.99,10.0,SW,6.9,-,N/A,,Clear,230,2013-01-05 10:56:00
6:56 AM,32.0,21.9,66,30.03,10.0,WSW,9.2,-,N/A,,Partly Cloudy,250,2013-01-05 11:56:00
7:56 AM,33.1,21.9,64,30.06,10.0,WSW,8.1,-,N/A,,Partly Cloudy,240,2013-01-05 12:56:00
8:56 AM,35.6,23.0,60,30.06,10.0,WSW,9.2,-,N/A,,Clear,250,2013-01-05 13:56:00
9:56 AM,37.0,23.0,57,30.15,10.0,West,10.4,20.7,N/A,,Mostly Cloudy,280,2013-01-05 14:56:00
10:56 AM,39.0,21.9,50,30.15,10.0,WNW,15.0,23.0,N/A,,Scattered Clouds,290,2013-01-05 15:56:00
11:56 AM,39.0,21.9,50,30.17,10.0,NW,10.4,-,N/A,,Mostly Cloudy,310,2013-01-05 16:56:00
12:56 PM,39.9,18.0,41,30.17,10.0,West,16.1,27.6,N/A,,Clear,280,2013-01-05 17:56:00
1:56 PM,39.0,16.0,39,30.17,10.0,WNW,16.1,24.2,N/A,,Clear,300,2013-01-05 18:56:00
2:56 PM,39.0,18.0,43,30.19,10.0,WNW,13.8,18.4,N/A,,Clear,290,2013-01-05 19:56:00
3:56 PM,37.9,12.9,36,30.21,10.0,NNW,8.1,-,N/A,,Clear,330,2013-01-05 20:56:00
4:56 PM,33.1,15.1,48,30.25,10.0,Calm,Calm,-,N/A,,Clear,0,2013-01-05 21:56:00
5:56 PM,27.0,17.1,66,30.27,10.0,Calm,Calm,-,N/A,,Clear,0,2013-01-05 22:56:00
6:56 PM,24.1,18.0,77,30.30,10.0,Calm,Calm,-,N/A,,Clear,0,2013-01-05 23:56:00
7:56 PM,19.9,15.1,81,30.29,10.0,Calm,Calm,-,N/A,,Clear,0,2013-01-06 00:56:00
8:56 PM,19.9,16.0,85,30.28,10.0,Calm,Calm,-,N/A,,Clear,0,2013-01-06 01:56:00
9:56 PM,17.1,12.9,84,30.28,10.0,Calm,Calm,-,N/A,,Clear,0,2013-01-06 02:56:00
10:56 PM,19.9,16.0,85,30.28,10.0,Calm,Calm,-,N/A,,Clear,0,2013-01-06 03:56:00
11:56 PM,19.0,16.0,88,30.25,10.0,Calm,Calm,-,N/A,,Clear,0,2013-01-06 04:56:00